Change the Weather History Date:

Thursday, April 4, 2013

  Actual Average Record
Temperature  
Mean Temperature 63 °F 48 °F  
Max Temperature 72 °F 59 °F 80 °F (1889)
Min Temperature 54 °F 38 °F 23 °F (1909)
Degree Days  
Heating Degree Days 2 17  
Month to date heating degree days 26 68  
Since 1 July heating degree days 4733 4863  
Cooling Degree Days 0 0  
Month to date cooling degree days 0 0  
Year to date cooling degree days 0 0  
Growing Degree Days 13 (Base 50)    
Moisture  
Dew Point 37 °F    
Average Humidity 42    
Maximum Humidity 59    
Minimum Humidity 24    
Precipitation  
Precipitation T in 0.04 in 0.66 in (2006)
Month to date precipitation T 0.16  
Year to date precipitation 2.20 3.78  
Snow  
Snow 0.00 in 0.00 in 0.40 in (1921)
Month to date snowfall 0.0 0.1  
Since 1 July snowfall 16.0 19.0  
Snow Depth 0.00 in    
Sea Level Pressure  
Sea Level Pressure 29.85 in    
Wind  
Wind Speed 10 mph (ESE)    
Max Wind Speed 18 mph    
Max Gust Speed 24 mph    
Visibility 10 miles    
Events Rain    
T = Trace of Precipitation, MM = Missing Value Source: NWS Daily Summary

Daily Weather History Graph

Daily Weather History Graph

Search for Another Location

Airport or City:

Trip Planner

Search our weather history database for the weather conditions in past years. The results will help you decide how hot, cold, wet, or windy it might be!

Date:

Astronomy

Apr. 04, 2013 Rise Set
Actual Time 7:20 AM MDT 8:15 PM MDT
Civil Twilight 6:51 AM MDT 8:44 PM MDT
Nautical Twilight 6:17 AM MDT 9:19 PM MDT
Astronomical Twilight 5:40 AM MDT 9:55 PM MDT
Moon 4:00 AM MDT 2:29 PM MDT
Length of Visible Light 13h 53m
Length of Day
12h 54m
Waning Crescent, 33% of the Moon is Illuminated
Apr 4
Waning Crescent
Apr 10
New
Apr 18
First Quarter
Apr 25
Full
May 2
Last Quarter

Hourly Weather History & Observations

Time (MDT) Temp. Dew Point Humidity Pressure Visibility Wind Dir Wind Speed Gust Speed Precip Events Conditions
12:53 AM 55.0 °F 37.0 °F 51% 29.96 in 10.0 mi ESE 6.9 mph - N/A   Clear
1:53 AM 55.0 °F 36.0 °F 49% 29.95 in 10.0 mi ESE 8.1 mph - N/A   Clear
2:53 AM 55.0 °F 35.1 °F 47% 29.94 in 10.0 mi SE 11.5 mph - N/A   Clear
3:53 AM 54.0 °F 35.1 °F 49% 29.91 in 10.0 mi SE 9.2 mph - N/A   Clear
4:53 AM 54.0 °F 35.1 °F 49% 29.91 in 10.0 mi SE 10.4 mph - N/A   Clear
5:53 AM 54.0 °F 34.0 °F 47% 29.89 in 10.0 mi SE 11.5 mph - N/A   Clear
6:53 AM 55.0 °F 34.0 °F 45% 29.88 in 10.0 mi SE 15.0 mph - N/A   Partly Cloudy
7:53 AM 55.9 °F 34.0 °F 44% 29.86 in 10.0 mi SE 13.8 mph - N/A   Clear
8:53 AM 59.0 °F 34.0 °F 39% 29.85 in 10.0 mi SE 11.5 mph - N/A   Clear
9:53 AM 57.9 °F 34.0 °F 41% 29.87 in 10.0 mi SE 18.4 mph - N/A   Clear
10:53 AM 63.0 °F 35.1 °F 35% 29.85 in 10.0 mi SE 12.7 mph - N/A   Clear
11:53 AM 69.1 °F 36.0 °F 30% 29.83 in 10.0 mi ESE 8.1 mph - N/A   Clear
12:53 PM 72.0 °F 32.0 °F 23% 29.81 in 10.0 mi SSE 16.1 mph 23.0 mph N/A   Clear
1:53 PM 72.0 °F 33.1 °F 24% 29.80 in 10.0 mi SSE 13.8 mph - N/A   Mostly Cloudy
2:32 PM 64.4 °F 37.4 °F 37% 29.88 in 10.0 mi WNW 15.0 mph - N/A   Overcast
2:53 PM 64.0 °F 37.9 °F 38% 29.86 in 10.0 mi NW 11.5 mph - N/A   Overcast
3:53 PM 62.1 °F 43.0 °F 50% 29.85 in 10.0 mi ENE 8.1 mph - 0.00 in Rain Light Rain
4:53 PM 66.9 °F 37.9 °F 34% 29.81 in 10.0 mi East 6.9 mph - 0.00 in   Mostly Cloudy
5:53 PM 66.9 °F 37.9 °F 34% 29.80 in 10.0 mi ESE 8.1 mph - N/A   Overcast
6:53 PM 66.9 °F 37.9 °F 34% 29.77 in 10.0 mi ESE 9.2 mph - N/A   Partly Cloudy
7:53 PM 64.0 °F 39.0 °F 40% 29.77 in 10.0 mi ESE 9.2 mph - N/A   Overcast
8:24 PM 59.0 °F 39.2 °F 48% 29.83 in 10.0 mi NW 12.7 mph - N/A   Scattered Clouds
8:53 PM 59.0 °F 41.0 °F 51% 29.80 in 10.0 mi North 4.6 mph - N/A   Overcast
9:53 PM 59.0 °F 41.0 °F 51% 29.80 in 10.0 mi SE 3.5 mph - N/A   Overcast
10:53 PM 57.0 °F 41.0 °F 55% 29.80 in 10.0 mi SE 5.8 mph - N/A   Overcast
11:53 PM 55.9 °F 41.0 °F 57% 29.82 in 10.0 mi North 4.6 mph - N/A   Scattered Clouds